AB9BZ Weather Reports


time (UTC)temp
C
wind
direction
speed
KPH
gust
KPH
rain 1hr
cm
rain 24hr
cm
rain mn
cm
humidity
%
barometer
mb
20260504024502 15 207 3.2 6.4 0.00 0.00 0.00 64 986.7
20260504023511 15 152 3.2 4.8 0.00 0.00 0.00 64 986.7
20260504022459 15 150 3.2 4.8 0.00 0.00 0.00 63 986.6
20260504021508 16 187 4.8 6.4 0.00 0.00 0.00 62 986.5
20260504020517 16 127 3.2 8.0 0.00 0.00 0.00 61 986.5
20260504015505 16 159 4.8 6.4 0.00 0.00 0.00 60 986.3
20260504014513 16 114 3.2 8.0 0.00 0.00 0.00 59 986.3
20260504013503 16 171 4.8 6.4 0.00 0.00 0.00 58 986.1
20260504012511 17 156 4.8 9.7 0.00 0.00 0.00 57 986.1
20260504011500 17 143 3.2 4.8 0.00 0.00 0.00 56 986.0
20260504010529 17 109 3.2 6.4 0.00 0.00 0.00 55 986.1
20260504005457 17 85 3.2 6.4 0.00 0.00 0.00 54 985.9
20260504004505 18 113 4.8 9.7 0.00 0.00 0.00 53 986.1
20260504003513 18 166 6.4 9.7 0.00 0.00 0.00 52 986.0
20260504002502 18 99 4.8 6.4 0.00 0.00 0.00 51 986.1
20260504001510 18 173 4.8 9.7 0.00 0.00 0.00 51 986.0
20260504000520 19 125 4.8 11.3 0.00 0.00 0.00 50 986.0
20260503235507 19 109 6.4 9.7 0.00 0.00 0.00 50 986.0
20260503234536 19 136 4.8 6.4 0.00 0.00 0.00 49 986.1
20260503233506 19 150 4.8 9.7 0.00 0.00 0.00 48 985.9
20260503232512 20 139 6.4 11.3 0.00 0.00 0.00 48 986.0
20260503231502 20 104 4.8 4.8 0.00 0.00 0.00 47 986.2
20260503230510 20 174 8.0 16.1 0.00 0.00 0.00 45 986.3
20260503225459 21 154 11.3 19.3 0.00 0.00 0.00 44 986.4
20260503224507 21 142 8.0 14.5 0.00 0.00 0.00 43 986.6
20260503223515 21 160 9.7 17.7 0.00 0.00 0.00 42 986.6
20260503222505 21 170 11.3 16.1 0.00 0.00 0.00 42 986.7
20260503221512 21 173 8.0 14.5 0.00 0.00 0.00 42 986.9
20260503220503 21 116 8.0 14.5 0.00 0.00 0.00 42 987.0
20260503215509 21 148 9.7 16.1 0.00 0.00 0.00 42 986.9
20260503214518 21 188 11.3 16.1 0.00 0.00 0.00 42 987.1
20260503213528 21 114 8.0 16.1 0.00 0.00 0.00 41 987.3
20260503212515 20 166 9.7 16.1 0.00 0.00 0.00 42 987.6
20260503211506 21 137 6.4 11.3 0.00 0.00 0.00 41 987.6
20260503210512 18 162 9.7 14.5 0.00 0.00 0.00 44 987.8
20260503205502 19 115 8.0 17.7 0.00 0.00 0.00 43 988.1
20260503204509 19 157 16.1 25.7 0.00 0.00 0.00 43 988.2
20260503203518 18 151 9.7 16.1 0.00 0.00 0.00 44 988.4
20260503202507 20 171 9.7 22.5 0.00 0.00 0.00 43 988.5
20260503201514 19 130 12.9 22.5 0.00 0.00 0.00 43 988.7
20260503200524 21 136 12.9 20.9 0.00 0.00 0.00 42 988.7
20260503195512 20 120 11.3 16.1 0.00 0.00 0.00 43 988.9
20260503194520 19 185 17.7 24.1 0.00 0.00 0.00 44 988.9
20260503193509 19 151 12.9 17.7 0.00 0.00 0.00 50 988.9
20260503192517 18 169 12.9 20.9 0.00 0.00 0.00 52 989.2
20260503191506 17 146 12.9 24.1 0.00 0.00 0.00 53 989.4
20260503190515 17 161 11.3 17.7 0.00 0.00 0.00 55 989.6
20260503185544 16 166 9.7 14.5 0.00 0.00 0.00 57 989.9
20260503184513 16 143 11.3 19.3 0.00 0.00 0.00 59 990.1
20260503183521 13 179 12.9 17.7 0.00 0.00 0.00 65 990.3
20260503182531 13 142 11.3 14.5 0.00 0.00 0.00 66 990.7
20260503181519 13 149 11.3 14.5 0.00 0.00 0.00 67 990.8
20260503180507 12 159 9.7 14.5 0.00 0.00 0.00 70 991.4
20260503175512 12 156 9.7 19.3 0.00 0.00 0.00 72 992.1
20260503174520 12 144 8.0 11.3 0.00 0.00 0.00 72 992.2
20260503173510 12 146 9.7 16.1 0.00 0.00 0.00 76 992.6
20260503172539 11 148 8.0 12.9 0.00 0.00 0.00 75 992.9
20260503171507 11 171 8.0 14.5 0.00 0.00 0.00 77 993.1
20260503170516 11 138 9.7 12.9 0.00 0.00 0.00 80 993.2
20260503150518 13 171 6.4 12.9 0.00 0.00 0.00 57 993.8
20260503130522 11 132 6.4 9.7 0.00 0.00 0.00 60 994.5
20260503110524 7 89 3.2 6.4 0.00 0.00 0.00 66 994.2
20260503081552 7 121 1.6 4.8 0.00 0.00 0.00 63 994.8
20260503080521 6 140 3.2 4.8 0.00 0.00 0.00 63 994.8
20260503072534 7 148 3.2 4.8 0.00 0.00 0.00 61 994.9
20260503071523 7 160 1.6 4.8 0.00 0.00 0.00 61 995.0
20260503070531 7 97 3.2 6.4 0.00 0.00 0.00 59 995.0
20260503054503 7 132 3.2 6.4 0.00 0.00 0.00 61 995.7
20260503053512 7 183 1.6 6.4 0.00 0.00 0.00 62 995.9
20260503052500 6 50 1.6 4.8 0.00 0.00 0.00 63 995.9
20260503051508 6 107 1.6 4.8 0.00 0.00 0.00 63 995.9
20260503050458 6 144 1.6 1.6 0.00 0.00 0.00 63 996.0
20260503045505 6 106 0.0 3.2 0.00 0.00 0.00 63 996.0
20260503044455 7 135 0.0 3.2 0.00 0.00 0.00 63 996.2
20260503043503 7 118 0.0 3.2 0.00 0.00 0.00 62 996.1
20260503042534 7 135 1.6 3.2 0.00 0.00 0.00 63 996.2
20260503041520 7 142 1.6 4.8 0.00 0.00 0.00 61 996.3
20260503040632 7 157 1.6 4.8 0.00 0.00 0.00 61 996.2
20260503035458 7 170 0.0 4.8 0.00 0.00 0.00 62 996.2
20260503034507 7 90 0.0 1.6 0.00 0.00 0.00 61 996.2
20260503033457 6 170 1.6 4.8 0.00 0.00 0.00 62 996.2
20260503032503 7 172 0.0 3.2 0.00 0.00 0.00 62 996.3
20260503031511 7 139 1.6 3.2 0.00 0.00 0.00 62 996.3
20260503030502 7 170 0.0 3.2 0.00 0.00 0.00 61 996.5
20260503025509 7 0.0 0.0 0.00 0.00 0.00 60 996.5